This is the latest recevied weather packets stored in our database for station/object SALT. If no packets are shown the sender has not sent any weather packets the latest 10 day(s).
| Time | Temp. | Humidity | Pressure | Rain* | Wind** | Luminosity | Snow |
|---|---|---|---|---|---|---|---|
| 1777560973 | 6.67° C | 53% | 1028.8 hPa | 0 mm | - | - | - |
| 1777560371 | 7.22° C | 55% | 1028.7 hPa | 0 mm | - | - | - |
| 1777559768 | 7.22° C | 52% | 1028.8 hPa | 0 mm | - | - | - |
| 1777559165 | 7.22° C | 54% | 1028.7 hPa | 0 mm | - | - | - |
| 1777558562 | 6.11° C | 56% | 1028.6 hPa | 0 mm | - | - | - |
| 1777557958 | 5.56° C | 56% | 1028.6 hPa | 0 mm | - | - | - |
| 1777557355 | 5.56° C | 58% | 1028.6 hPa | 0 mm | - | - | - |
| 1777556753 | 5° C | 61% | 1028.4 hPa | 0 mm | - | - | - |
| 1777556150 | 4.44° C | 63% | 1028.4 hPa | 0 mm | - | - | - |
| 1777555548 | 3.89° C | 64% | 1028.5 hPa | 0 mm | - | - | - |
| 1777554945 | 2.78° C | 65% | 1028.6 hPa | 0 mm | - | - | - |
| 1777554340 | 1.67° C | 68% | 1028.6 hPa | 0 mm | - | - | - |
| 1777553737 | 1.67° C | 69% | 1028.6 hPa | 0 mm | - | - | - |
| 1777553135 | 1.67° C | 68% | 1028.5 hPa | 0 mm | - | - | - |
| 1777552532 | 1.67° C | 70% | 1028.5 hPa | 0 mm | - | - | - |
| 1777551929 | 1.67° C | 69% | 1028.6 hPa | 0 mm | - | - | - |
| 1777551326 | 2.22° C | 67% | 1028.6 hPa | 0 mm | - | - | - |
| 1777550722 | 2.78° C | 69% | 1028.6 hPa | 0 mm | - | - | - |
| 1777550119 | 2.22° C | 70% | 1028.7 hPa | 0 mm | - | - | - |
| 1777549517 | 2.22° C | 70% | 1028.8 hPa | 0 mm | - | - | - |
| 1777548914 | 1.67° C | 74% | 1028.8 hPa | 0 mm | - | - | - |
| 1777548312 | 1.67° C | 74% | 1028.9 hPa | 0 mm | - | - | - |
| 1777547708 | 1.11° C | 76% | 1029 hPa | 0 mm | - | - | - |
| 1777547104 | 1.11° C | 75% | 1029.1 hPa | 0 mm | - | - | - |
| 1777546501 | 1.67° C | 73% | 1029 hPa | 0 mm | - | - | - |
* Rain latest 24 hours (hover to see other rain measurements)
** Current wind speed in m/s (hover to see current wind gust speed)